map of GDN home
GDN - Airport
Location
City:  Gdansk, Pomorskie, Poland
Name:Lech Walesa
Old (Alt.):Rebiechowo
ICAO:EPGD
IATA:GDN

Details
Type:Airport (Aerodrome, Airfield)
Use:International (customs port of entry)
Latitude:5422'39"N (54.377569)
Longitude:1827'58"E (18.466222)
Datum:WGS 1984
Elevation:489 ft (149 m)
Variation:5.48E (WMM2015 magnetic declination)
0.14 annual change
Runways:1
Longest:9186 × 148 ft (2800 × 45 m), paved

Time
Time Zone:UTC+1 (DST+2)
Local Time:

Weather
METAR:EPGD 250530Z 25003KT 9999 FEW006 SCT011 M15/M17 Q1031 R11/490195
TAF:EPGD 250530Z 2506/2606 27003KT 9999 BKN020
TEMPO 2506/2606 4000 SHSN BKN014TCU PROB30
TEMPO 2506/2510 1500 SHSN BKN005 BKN012CB
BECMG 2510/2512 05010KT PROB40
TEMPO 2518/2606 2000 SN BKN003 BKN012

Related Locations
Nearby:
Farthest:CHT: 11442 mi / 18414 km
Waitangi [Tuuta], CIT, NZ

Find:

   beyond  
but within

Other Information
Maps:
NOTAMs:
Links:
Sources:

  
flag of Poland
flag of Pomorskie
flag of Gdansk
  

Sectional Chart

Flight Planning
at skyvector.com

Satellite Image

Google Maps Satellite view

 

Copyright © 2004-2018 Karl L. Swartz. All rights reserved.
The Great Circle Mapper name and logo are trademarks of the Great Circle Mapper.
All other trademarks mentioned herein belong to their respective owners.
Please see credits for attibutions and further copyright information.

  Follow gcmap on Facebook Follow gcmap on Twitter Follow gcmap on Google+ GCmap on LinkedIn

hCard Microformat

Geo Microformat